Location: Medlow Airstrip Trail, Medlow Bath NSW 2780, Australia
(33.6682°S, 150.3233°E)
Time: 05:43:36
(UTC+11:00)

Explorer 11/Cluster Stage 4 - Pass Details

Date: 02 October 2019
Orbit: 467 x 1259 km, 28.8° (Epoch: 19 October)

Event Time Altitude Azimuth Distance (km) Brightness Sun altitude
Rises 09:36:35 0° 276° (W) 2,674 9.0 46.9°
Reaches altitude 10° 09:39:01 10° 291° (WNW) 1,871 8.4 47.3°
Maximum altitude 09:42:28 23° 345° (NNW) 1,339 8.3 47.8°
Drops below altitude 10° 09:46:29 10° 37° (NE) 2,206 9.8 48.5°
Sets 09:49:37 0° 50° (NE) 3,290 10.4 49.0°
